Вернуться в каталог

HAI YANG 2-05

АктивенПогодаSSO
NORAD 69737·PAYLOAD·🇨🇳 China
Это название спутника еще не подтверждено официальными источниками.

Запущен Jul 1, 2026 с Jiuquan Satellite Launch Center

Loading…

Ближайшие Пролёты (ближайшие 24 часа)

TLE

СвежийSource: CelesTrak SupGP

Эпоха: Sep 14, 2026, 00:00 UTC

1 69737C 26149A   26257.00000000 -.00000051  00000+0 -49469-4 0  2576
2 69737  99.3472 263.1096 0000468  70.5643 193.9332 13.79299964    18

Отслеживайте HAI YANG 2-05 в реальном времени с AllMySat

Download on the App Store